TimeEEST,TemperatureF,Dew PointF,Humidity,Sea Level PressureIn,VisibilityMPH,Wind Direction,Wind SpeedMPH,Gust SpeedMPH,PrecipitationIn,Events,Conditions,WindDirDegrees,DateUTC
4:50 AM,55.4,51.8,88,29.98,6.2,NE,4.6,-,N/A,,Partly Cloudy,50,2012-10-12 01:50:00
5:20 AM,55.4,51.8,88,29.98,6.2,NE,4.6,-,N/A,,Partly Cloudy,50,2012-10-12 02:20:00
5:50 AM,55.4,51.8,88,29.98,6.2,East,5.8,-,N/A,,Partly Cloudy,80,2012-10-12 02:50:00
6:20 AM,55.4,51.8,88,29.98,6.2,ENE,4.6,-,N/A,,Partly Cloudy,70,2012-10-12 03:20:00
6:50 AM,55.4,51.8,88,29.98,6.2,Calm,Calm,-,N/A,,Partly Cloudy,0,2012-10-12 03:50:00
7:20 AM,51.8,46.4,82,29.98,6.2,Calm,Calm,-,N/A,,Scattered Clouds,0,2012-10-12 04:20:00
7:50 AM,51.8,46.4,82,29.98,6.2,ENE,4.6,-,N/A,,Scattered Clouds,60,2012-10-12 04:50:00
8:20 AM,53.6,48.2,82,29.98,6.2,Calm,Calm,-,N/A,,Scattered Clouds,0,2012-10-12 05:20:00
8:50 AM,59.0,55.4,88,30.01,-9999.0,Calm,Calm,-,N/A,,Clear,0,2012-10-12 05:50:00
9:20 AM,59.0,55.4,88,30.01,-9999.0,Calm,Calm,-,N/A,,Clear,0,2012-10-12 06:20:00
9:50 AM,62.6,55.4,77,30.01,-9999.0,ENE,6.9,-,N/A,,Clear,60,2012-10-12 06:50:00
10:20 AM,64.4,55.4,73,30.01,-9999.0,ENE,4.6,-,N/A,,Clear,60,2012-10-12 07:20:00
10:50 AM,66.2,57.2,73,30.01,-9999.0,Calm,Calm,-,N/A,,Clear,0,2012-10-12 07:50:00
11:20 AM,71.6,59.0,64,30.01,6.2,Calm,Calm,-,N/A,,Scattered Clouds,0,2012-10-12 08:20:00
11:50 AM,73.4,59.0,61,30.01,6.2,SSW,5.8,-,N/A,,Scattered Clouds,210,2012-10-12 08:50:00
12:20 PM,73.4,59.0,61,30.01,6.2,Calm,Calm,-,N/A,,Scattered Clouds,0,2012-10-12 09:20:00
12:50 PM,75.2,57.2,53,30.01,6.2,SW,4.6,-,N/A,,Scattered Clouds,230,2012-10-12 09:50:00
1:20 PM,73.4,57.2,57,30.01,6.2,SW,4.6,-,N/A,,Mostly Cloudy,230,2012-10-12 10:20:00
1:50 PM,73.4,59.0,61,30.01,6.2,SW,5.8,-,N/A,,Mostly Cloudy,230,2012-10-12 10:50:00
2:20 PM,73.4,59.0,61,30.01,6.2,SW,8.1,-,N/A,,Scattered Clouds,220,2012-10-12 11:20:00
2:50 PM,73.4,59.0,61,30.01,6.2,SW,9.2,-,N/A,,Scattered Clouds,220,2012-10-12 11:50:00
3:20 PM,73.4,59.0,61,29.98,6.2,SW,9.2,-,N/A,,Scattered Clouds,220,2012-10-12 12:20:00
3:50 PM,73.4,59.0,61,29.98,6.2,SW,8.1,-,N/A,,Scattered Clouds,220,2012-10-12 12:50:00
4:20 PM,73.4,59.0,61,29.98,6.2,SW,8.1,-,N/A,,Scattered Clouds,220,2012-10-12 13:20:00
4:50 PM,73.4,59.0,61,29.98,6.2,SW,5.8,-,N/A,,Scattered Clouds,220,2012-10-12 13:50:00
5:20 PM,73.4,57.2,57,29.98,6.2,SSW,4.6,-,N/A,,Scattered Clouds,210,2012-10-12 14:20:00
5:50 PM,71.6,59.0,64,29.98,6.2,Calm,Calm,-,N/A,,Mostly Cloudy,0,2012-10-12 14:50:00
6:20 PM,69.8,59.0,68,29.98,6.2,SW,4.6,-,N/A,,Mostly Cloudy,230,2012-10-12 15:20:00
6:50 PM,68.0,59.0,73,29.98,6.2,Calm,Calm,-,N/A,,Scattered Clouds,0,2012-10-12 15:50:00
7:20 PM,68.0,59.0,73,29.98,6.2,Calm,Calm,-,N/A,,Scattered Clouds,0,2012-10-12 16:20:00
7:50 PM,64.4,59.0,83,29.98,6.2,Calm,Calm,-,N/A,,Scattered Clouds,0,2012-10-12 16:50:00
8:20 PM,64.4,59.0,83,29.98,6.2,Calm,Calm,-,N/A,,Partly Cloudy,0,2012-10-12 17:20:00
8:50 PM,62.6,57.2,82,29.98,6.2,Calm,Calm,-,N/A,,Partly Cloudy,0,2012-10-12 17:50:00
9:20 PM,62.6,57.2,82,29.98,6.2,Calm,Calm,-,N/A,,Partly Cloudy,0,2012-10-12 18:20:00
9:50 PM,60.8,57.2,88,29.98,6.2,Calm,Calm,-,N/A,,Partly Cloudy,0,2012-10-12 18:50:00